Location: Breitenfeld
(46.8500°N, 15.6333°E)
Time: 18:25:42
(UTC+00:00)

ERBS - Pass Details

Date: 09 April 2020
Orbit: 409 x 426 km, 57.0° (Epoch: 02 June)

Event Time Altitude Azimuth Distance (km) Brightness Sun altitude
Rises 18:32:40 0° 311° (NW) 2,396 7.7 -9.7°
Reaches altitude 10° 18:34:56 10° 323° (NW) 1,529 6.1 -10.1°
Maximum altitude 18:37:59 29° 26° (NNE) 815 3.7 -10.5°
Enters shadow 18:40:28 14° 83° (E) 1,329 4.3 -10.9°
